Terminal Aerodrome Forecast
Issued by NWS

Current Version | Previous Version | Text Only | Print | Product List | Glossary On
Versions: 1 2 3 4 5 6 7 8 9 10 11 12 13 14 15 16 17 18 19 20 21 22 23 24 25 26
000
FTUS41 KCTP 302320
TAFBFD
TAF
KBFD 302320Z 0100/0124 11010G20KT 5SM BR BKN009 OVC015
     FM010300 10008KT 1 1/2SM -DZ BR OVC003
     FM011600 12008KT 5SM BR BKN009 OVC015=

USA.gov is the U.S. government's official web portal to all federal, state and local government web resources and services.